Location: Casper
(42.8670°N, 106.3130°W)
Time: 03:51:10
(UTC-06:00)

Daily predictions for brighter satellites

Satellite Brightness Start Highest point End
(mag) Time Altitude Azimuth Time Altitude Azimuth Time Altitude Azimuth
Cosmos 1544 3.8 00:01:20 10° NNW 00:04:31 50° WNW 00:04:31 50° WNW
Lacrosse 5 4.3 00:03:06 10° NNW 00:06:51 20° NNE 00:10:37 10° ENE
Cosmos 1655 Rocket 4.1 00:07:26 52° SE 00:08:46 64° E 00:14:59 10° NNE
Cosmos 1707 3.1 00:10:40 60° NNE 00:10:40 60° NNE 00:13:58 10° N
Cosmos 1766 Rocket 4.5 00:11:34 38° ENE 00:11:34 38° ENE 00:15:18 10° NNE
CZ-4C R/B 2.6 00:12:00 43° ESE 00:12:00 43° ESE 00:17:10 10° NE
Cosmos 2084 4.4 00:07:57 10° NW 00:11:07 37° W 00:11:07 37° W
Cosmos 2082 Rocket 4.0 00:14:28 17° E 00:14:28 17° E 00:17:34 10° ENE
Cosmos 1741 Rocket 4.4 00:12:54 43° SW 00:14:25 61° WNW 00:19:42 10° NNE
H-2A R/B 3.2 00:13:14 10° NNE 00:16:03 41° NE 00:16:03 41° NE
Landsat 5 4.2 00:17:29 42° NE 00:17:29 42° NE 00:20:57 10° N
H-2A R/B 3.9 00:18:56 15° WSW 00:20:18 17° W 00:23:32 10° NW
Lacrosse 4 Rocket 4.2 00:18:18 10° WNW 00:20:31 14° NW 00:22:46 10° N
Cosmos 2221 2.5 00:17:43 10° N 00:21:43 76° N 00:21:43 76° N
Cosmos 1076 Rocket 4.0 00:22:58 51° ENE 00:22:58 51° ENE 00:26:32 10° NNE
Cosmos 1943 Rocket 3.5 00:22:46 10° NW 00:27:12 25° WSW 00:27:52 24° WSW
BREEZE-M DEB (TANK) 4.4 00:06:08 10° WSW 00:27:41 74° NNW 00:32:25 10° ENE
Cosmos 1689 Rocket 4.1 00:30:06 31° N 00:30:06 31° N 00:32:00 10° N
NOSS 3-3 (A) 4.5 00:24:03 10° NW 00:31:29 76° NE 00:34:49 38° SE
Meteor 1-24 Rocket 3.8 00:31:06 62° SSE 00:32:06 79° E 00:38:03 10° NNE
Cosmos 2026 Rocket 3.9 00:34:20 56° SSW 00:35:40 78° W 00:41:45 10° N
Cosmos 2228 Rocket 3.6 00:31:42 10° N 00:35:46 50° ENE 00:35:46 50° ENE
CENTAUR R/B 4.3 00:37:39 15° ESE 00:37:39 15° ESE 00:40:51 10° ENE
Okean 3 Rocket 4.4 00:37:59 40° W 00:38:12 40° WNW 00:42:23 10° N
NOSS 3-2 (C) 3.4 00:39:24 60° SSE 00:40:13 67° ESE 00:46:48 10° NE
Cosmos 1656 Rocket 4.3 00:37:00 10° NW 00:42:16 40° WSW 00:42:37 39° WSW
Cosmos 1378 4.1 00:45:04 45° NNE 00:45:04 45° NNE 00:47:50 10° NNE
Cosmos 468 Rocket 3.8 00:48:00 10° NNW 00:53:17 77° WSW 00:53:28 76° SW
COSMOS 2487 4.5 00:55:28 24° WNW 00:55:28 24° WNW 00:58:18 10° N
CZ-2C R/B 3.2 00:51:57 10° NNE 00:57:16 45° E 00:57:38 44° ESE
Cosmos 1814 Rocket 3.9 00:54:26 10° NNW 00:59:44 77° WSW 00:59:57 75° SW
ALOS 2 3.3 01:01:02 45° WNW 01:01:02 45° WNW 01:04:46 10° NNW
ISS -0.3 00:59:57 10° NW 01:02:14 17° N 01:04:30 10° NE
Cosmos 1408 Rocket 4.3 01:07:27 44° WNW 01:07:27 44° WNW 01:11:41 10° N
Meteor 1-21 Rocket 4.3 01:06:48 57° SE 01:07:29 61° E 01:13:05 10° NNE
In-Cosmos 22 4.1 01:08:16 65° SE 01:08:49 70° E 01:14:27 10° NNE
Genesis I 4.1 01:10:04 10° NNW 01:13:43 45° NE 01:13:43 45° NE
Cosmos 2369 3.5 01:08:43 10° NNW 01:14:24 80° WSW 01:14:57 72° S
Cosmos 1486 Rocket 3.9 01:14:20 69° WSW 01:14:46 74° WNW 01:20:00 10° NNE
Meteor 2-2 Rocket 4.4 01:10:39 10° N 01:16:21 67° ENE 01:17:26 55° SE
Cosmos 1553 Rocket 4.4 01:14:14 10° NNW 01:20:21 52° W 01:21:33 46° SW
Cosmos 1818 3.5 01:15:07 10° NW 01:20:33 66° WSW 01:20:33 66° WSW
Cosmos 405 Rocket 4.0 01:24:02 35° NW 01:24:02 35° NW 01:26:56 10° N
CZ-4B R/B 3.8 01:25:00 19° WNW 01:25:00 19° WNW 01:26:41 10° NW
NOSS 3-2 (A) 4.0 01:22:02 33° WSW 01:24:47 56° NW 01:31:25 10° NNE
Helios 1A Rocket 3.8 01:22:04 10° N 01:25:40 42° WNW 01:25:40 42° WNW
Lacrosse 5 rocket 4.2 01:24:08 10° NNW 01:27:14 19° NNE 01:30:26 10° ENE
Meteor 2-20 Rocket 4.4 01:28:25 61° S 01:29:36 84° E 01:35:48 10° N
Cosmos 1908 4.0 01:26:10 10° N 01:29:16 51° NNE 01:29:16 51° NNE
Cosmos 2344 3.6 01:27:26 47° SSW 01:30:02 77° ESE 01:38:49 10° NE
Cosmos 1151 Rocket 3.2 01:26:11 10° N 01:30:09 63° NE 01:30:09 63° NE
Cosmos 1743 Rocket 4.2 01:34:25 47° WNW 01:34:25 47° WNW 01:38:33 10° N
Cosmos 2151 3.7 01:34:33 46° ENE 01:34:33 46° ENE 01:38:20 10° NNE
Cosmos 1763 Rocket 3.4 01:29:10 10° NNW 01:34:29 71° WSW 01:34:40 70° SW
Cosmos 2278 4.1 01:31:40 10° NW 01:37:03 45° WSW 01:37:03 45° WSW
Cosmos 1980 Rocket 3.2 01:32:06 10° NNW 01:37:25 41° ENE 01:40:33 22° ESE
Cosmos 540 Rocket 4.4 01:33:24 10° N 01:38:21 43° ENE 01:40:10 31° ESE
Cosmos 2315 Rocket 4.0 01:33:03 10° N 01:39:25 82° E 01:40:59 54° SSE
Cosmos 1300 4.3 01:41:19 10° NNE 01:44:39 27° ENE 01:44:50 27° E
Cosmos 1437 Rocket 3.2 01:41:04 10° N 01:44:24 58° NNE 01:44:24 58° NNE
Cosmos 1441 Rocket 3.6 01:48:17 64° N 01:48:17 64° N 01:51:40 10° N
Cosmos 2266 Rocket 4.3 01:47:04 47° SW 01:48:39 60° W 01:55:01 10° N
Lacrosse 5 2.4 01:45:45 10° NW 01:50:45 57° NE 01:54:01 21° ESE
Cosmos 1500 Rocket 4.2 01:52:07 44° WNW 01:52:07 44° WNW 01:56:04 10° N
TRAILBLAZER 4.5 01:47:49 10° NW 01:52:20 85° NNW 01:52:20 85° NNW
USA 215 4.0 01:46:39 10° ENE 01:52:31 34° SE 01:53:19 33° SE
Sich 1 4.3 01:53:31 30° ESE 01:53:58 30° E 01:57:51 10° NNE
Cosmos 1867 4.0 01:54:30 42° W 01:55:58 55° NW 02:01:22 10° NNE
Cosmos 2082 Rocket 2.3 01:56:18 54° WSW 01:57:27 69° WNW 02:03:08 10° NNE
Cosmos 1697 Rocket 2.6 01:52:22 10° NNW 01:58:05 89° WSW 01:59:20 57° SSE
CZ-4C R/B 3.5 01:57:08 20° W 02:00:15 35° NW 02:05:51 10° NNE
Cosmos 1354 Rocket 4.4 02:00:31 48° WSW 02:01:29 55° WNW 02:06:42 10° NNE
Cosmos 1833 Rocket 2.7 02:05:17 56° SW 02:06:28 75° WNW 02:12:09 10° NNE
USA 32 3.9 02:01:55 10° N 02:07:12 83° W 02:08:01 64° SSW
Cosmos 1503 Rocket 4.5 02:06:53 44° WSW 02:07:59 51° WNW 02:13:10 10° N
CZ-2C R/B 3.3 02:11:20 52° SW 02:12:04 57° W 02:17:41 10° NNW
PSLV R/B 3.9 02:08:53 10° NNE 02:13:26 56° E 02:13:54 53° SE
Cosmos 841 Rocket 4.3 02:09:05 10° NW 02:13:35 34° W 02:13:35 34° W
Cosmos 1726 2.9 02:10:44 10° N 02:14:17 44° ENE 02:14:20 44° E
H-2A R/B 3.8 02:14:58 23° SE 02:14:58 23° SE 02:22:28 10° E
Cosmos 1674 3.7 02:16:20 37° NW 02:16:20 37° NW 02:19:20 10° N
Landsat 4 3.8 02:18:46 69° ENE 02:18:46 69° ENE 02:22:24 10° N
Cosmos 968 Rocket 4.2 02:19:20 36° SE 02:20:28 41° ESE 02:25:16 10° NE
Meteor 2-11 Rocket 4.4 02:17:15 10° NNW 02:23:23 72° W 02:25:10 47° SSW
CENTAUR R/B 2.5 02:24:48 46° SSW 02:26:51 88° SE 02:33:47 10° NE
Iridium 2 4.1 02:28:41 54° WNW 02:28:41 54° WNW 02:32:05 10° N
Cosmos 1656 4.3 02:24:12 10° NW 02:29:26 38° WSW 02:29:39 38° WSW
Aureole 1 Rocket 3.7 02:27:27 10° NNW 02:32:02 54° WSW 02:32:50 49° SW
Meteor 1-27 4.2 02:26:53 10° NNW 02:32:46 83° W 02:34:43 44° S
IRS-P3 4.4 02:29:12 10° NNE 02:34:29 59° E 02:36:14 40° SSE
Cosmos 1328 4.5 02:34:41 41° WNW 02:34:41 41° WNW 02:38:24 10° N
SL-14 R/B 3.1 02:34:37 81° ESE 02:34:39 81° E 02:38:31 10° N
Cosmos 1626 4.1 02:34:40 19° ESE 02:35:44 21° E 02:38:38 10° NE
CZ-2C R/B 4.1 02:32:43 10° N 02:37:16 27° WNW 02:39:10 22° W
SL-16 R/B 3.1 02:33:45 10° NNW 02:39:16 48° ENE 02:44:43 10° SE
ISS -1.0 02:36:37 10° NW 02:39:27 26° NNE 02:42:16 10° ENE
SL-08 R/B 4.4 02:37:47 44° SSW 02:39:51 76° W 02:46:00 10° N
Cosmos 1538 Rocket 4.1 02:35:39 10° NNW 02:40:53 76° ENE 02:43:29 31° SSE
ASTEX 1 4.0 02:37:38 10° N 02:42:20 43° WNW 02:43:15 39° WSW
Cosmos 2242 Rocket 3.4 02:38:18 10° N 02:42:44 89° W 02:43:32 60° S
Cosmos 1805 Rocket 3.9 02:42:29 47° W 02:42:56 49° WNW 02:47:15 10° N
Cosmos 1703 3.4 02:46:29 55° SE 02:47:04 65° E 02:51:00 10° NNE
Cosmos 1633 Rocket 3.1 02:50:26 55° SW 02:51:09 66° W 02:55:34 10° N
Cosmos 2322 Rocket 2.5 02:46:01 10° NNW 02:51:38 64° ENE 02:57:06 11° SE
Cosmos 1707 Rocket 4.3 02:52:14 10° NNW 02:56:13 36° W 02:56:20 36° W
Cosmos 1271 Rocket 3.2 02:52:32 10° N 02:56:17 56° ENE 02:57:29 37° SE
Cosmos 1777 Rocket 4.4 02:54:46 33° SSE 02:56:53 55° ESE 03:02:04 10° NNE
Cosmos 332 Rocket 4.0 02:53:56 10° NNW 02:58:34 49° WSW 02:59:14 45° SW
Cosmos 1666 Rocket 4.1 02:59:24 40° W 03:00:01 42° WNW 03:04:09 10° N
Cosmos 773 Rocket 4.3 02:56:26 10° NNW 03:01:33 66° ENE 03:05:53 15° SSE
Cosmos 2058 4.1 03:03:23 27° W 03:03:50 28° WNW 03:07:29 10° NNW
CBERS-1 4.0 02:58:53 10° NNE 03:04:01 76° ESE 03:06:14 35° S
Lacrosse 5 rocket 1.7 03:02:48 10° NW 03:07:10 71° NE 03:11:42 10° SE
SL-08 R/B 3.3 03:06:41 36° S 03:08:40 75° WSW 03:13:36 10° NNW
Cosmos 1470 Rocket 3.5 03:09:07 44° SSW 03:10:31 84° W 03:14:59 10° N
ARIANE 5 R/B 3.7 03:07:35 10° NNE 03:12:17 36° E 03:15:48 16° SSE
Cosmos 2292 Rocket 3.9 03:13:09 30° SE 03:14:06 39° E 03:17:26 10° NNE
Cosmos 1933 Rocket 3.5 03:13:42 43° SSW 03:15:06 78° W 03:19:33 10° N
ADEOS 3.7 03:11:24 10° NNE 03:16:39 71° ESE 03:19:29 27° S
ERS-2 2.6 03:13:35 10° N 03:17:09 45° WNW 03:17:48 40° WSW
Cosmos 1300 4.4 03:17:25 10° NW 03:19:53 19° W 03:19:53 19° W
Cosmos 1980 Rocket 3.0 03:16:24 10° NW 03:21:15 30° WSW 03:22:16 28° WSW
deb Kosmos-1763 4.2 03:20:42 46° SW 03:21:39 65° WNW 03:25:30 10° NNE
CZ-2D R/B 3.5 03:17:16 10° NNE 03:21:57 32° E 03:26:38 10° SSE
Cosmos 2360 Rocket 3.4 03:16:52 10° NNW 03:22:13 42° ENE 03:27:32 10° SE
USA 161 1.3 03:26:01 64° NE 03:26:01 64° NE 03:28:12 10° N
NPP 3.9 03:24:36 10° N 03:29:51 54° WNW 03:32:33 28° SW
Sich 1 4.5 03:30:31 21° W 03:31:41 24° WNW 03:35:18 10° NNW
SL-16 R/B 3.1 03:25:46 10° SSE 03:31:55 61° ENE 03:38:06 10° N
Meteor 1-4 Rocket 2.9 03:28:23 10° NNW 03:32:02 49° W 03:32:59 39° SW
Lacrosse 5 2.8 03:29:13 10° WNW 03:33:04 26° WSW 03:33:04 26° WSW
USA 215 3.4 03:29:17 10° NE 03:35:49 72° NW 03:40:38 19° WSW
Cosmos 2322 4.5 03:32:02 10° NNW 03:37:39 55° ENE 03:43:16 10° SE
Cosmos 2082 Rocket 4.4 03:40:03 10° WNW 03:42:40 13° NW 03:45:18 10° NNW
BREEZE-M DEB (TANK) 4.1 03:42:05 10° WNW 03:45:55 65° SSW 04:00:56 10° SE
Okean O Rocket 3.7 03:43:23 10° NE 03:46:55 23° E 03:50:24 10° SSE
Cosmos 1455 2.7 03:44:09 10° NNW 03:47:42 39° W 03:48:56 29° SW
Cosmos 1709 Rocket 4.2 03:43:51 22° SSW 03:47:55 59° W 03:54:07 10° N
Cosmos 2112 Rocket 3.9 03:43:08 10° NNW 03:48:22 90° W 03:53:34 10° SSE
Cosmos 1726 4.4 03:48:00 10° WNW 03:49:01 11° W 03:49:01 11° W
Cosmos 1862 Rocket 4.2 03:45:16 10° NNW 03:49:24 38° W 03:51:19 25° SW
Cosmos 1346 3.0 03:48:31 32° S 03:49:46 88° ESE 03:52:51 10° N
Cosmos 371 Rocket 4.4 03:45:58 10° NW 03:49:51 24° W 03:50:57 22° WSW
ATLAS 5 CENTAUR R/B 1.9 03:55:32 22° SSW 03:58:46 81° SE 04:04:03 10° NE
Cosmos 304 Rocket 3.8 03:59:17 10° NNW 04:04:04 63° WSW 04:08:49 10° S
Cosmos 2221 Rocket 3.6 04:03:02 10° NNW 04:07:31 65° W 04:11:59 10° S
COSMOS 2428 3.8 04:02:32 10° NNW 04:08:03 48° ENE 04:13:32 10° SE
USA 129 2.8 04:08:51 20° NNW 04:08:51 20° NNW 04:09:26 10° NNW
Cosmos 1833 4.2 04:04:22 17° SSW 04:08:59 88° WNW 04:14:46 10° NNE
GENESIS II 4.2 04:05:55 10° NW 04:10:04 85° WSW 04:14:07 10° SSE
Cosmos 1626 3.5 04:09:24 18° WSW 04:11:02 24° WNW 04:14:09 10° NNW
UNKNOWN OBJECT B 3.0 04:08:43 10° NNE 04:12:31 68° E 04:16:20 10° S
Resurs 1-4 Rocket 2.1 04:09:34 10° NNE 04:14:55 85° WNW 04:20:07 11° SSW
Cosmos 1869 Rocket 3.6 04:12:14 15° SSW 04:15:51 68° W 04:20:17 10° N
ISS -3.4 04:12:53 10° WNW 04:16:06 62° SW 04:19:19 10° SE
H-2A ROCKET BODY 3.4 04:18:26 12° SSW 04:18:26 12° SSW 04:19:19 10° S
CENTAUR R/B 4.2 04:13:13 10° W 04:18:31 26° NNW 04:24:21 10° NNE
Cosmos 2298 Rocket 4.1 04:16:24 11° SSW 04:21:32 81° ESE 04:26:53 10° NNE
SL-16 R/B 3.2 04:18:28 10° NW 04:23:02 25° WSW 04:27:28 10° SSW
CZ-2C R/B 3.8 04:23:44 10° SSE 04:28:12 81° ENE 04:32:47 10° NNW
UNK 4.1 04:26:16 10° S 04:30:38 44° W 04:35:03 10° NNW
OAO 3 Rocket 4.1 04:28:57 12° WSW 04:32:30 29° S 04:36:34 10° SE
SL-24 DEB 4.3 04:29:32 10° N 04:34:13 88° E 04:38:50 10° S
Meteor 2-3 Rocket 3.9 04:28:55 10° S 04:34:41 85° E 04:40:32 10° NNE
Cosmos 2322 Rocket 3.6 04:31:22 10° WNW 04:35:06 18° W 04:38:48 10° SW
ATLAS CENTAUR R/B 1.9 04:30:30 10° NNW 04:35:15 74° NE 04:39:34 10° SE
Cosmos 1680 Rocket 4.4 04:31:15 10° NW 04:35:41 29° W 04:40:07 10° SSW
ASTRO F (AKARI) 4.3 04:33:30 10° S 04:36:45 59° WSW 04:39:55 10° NNW
CZ-2D R/B 3.4 04:33:29 10° NNE 04:37:41 85° WNW 04:41:45 10° SSW
USA 229 DEB 3.8 04:33:44 10° SSW 04:40:39 81° SE 04:47:41 10° NE
Coronas F rocket 4.2 04:38:45 10° SE 04:40:42 18° E 04:42:40 10° NE
USA 229 3.9 04:33:50 10° SSW 04:40:46 80° SE 04:47:48 10° NE
GPS 2-05 Rocket1 4.1 04:40:06 12° SW 04:42:31 24° S 04:45:20 10° SE
CZ-4B R/B 3.7 04:40:13 10° NNE 04:44:10 52° E 04:48:17 10° S
Cosmos 2341 Rocket 4.4 04:38:19 10° S 04:44:33 69° E 04:50:53 10° NNE
PSLV R/B 3.8 04:40:44 10° NNE 04:44:40 90° NNE 04:48:42 10° SSW
Cosmos 2219 Rocket 3.4 04:39:22 10° NNW 04:44:47 47° ENE 04:50:09 10° SE
Lacrosse 5 rocket 2.9 04:43:04 10° W 04:46:05 18° WSW 04:49:09 10° SSW
Cosmos 1733 Rocket 3.3 04:44:36 10° S 04:48:55 74° E 04:53:17 10° NNE
SME Rocket 3.9 04:42:37 10° S 04:49:18 58° WSW 04:53:53 10° NNW
ARIANE 5 R/B 3.6 04:46:57 10° N 04:51:16 28° WNW 04:55:32 10° WSW
BREEZE-M DEB (TANK) 4.3 04:47:32 10° W 04:51:22 57° N 05:05:36 10° ENE
IRS-1C Rocket 4.2 04:46:33 10° N 04:51:49 71° WNW 04:57:04 10° SSW
Thor Agena Rocket 3.6 04:48:03 10° S 04:53:20 74° WSW 04:58:39 10° NNW
Cosmos 389 Rocket 2.6 04:51:41 10° NNW 04:55:23 69° W 04:59:02 10° S
Nadezhda 3 Rocket 4.0 04:51:05 10° N 04:57:15 76° W 05:03:22 10° S
Cosmos 1782 3.5 04:54:58 10° N 04:58:58 61° E 05:02:55 10° SSE
Sich 1 Rocket 4.2 04:56:14 10° S 05:00:33 59° E 05:04:53 10° NNE
Cosmos 2154 Rocket 4.1 04:55:01 10° SSW 05:01:19 73° W 05:07:42 10° N
CZ-2D R/B 3.0 04:57:19 10° N 05:02:00 34° WNW 05:06:42 10° SW
